When you browse on this site, cookies collect data to enhance your experience and personalize the content and advertising you see.
Visit our Privacy Policy to learn more. By continuing to use the site, you agree to this use of cookies and data.
  • Em Portugal
  • Lista de países
  • Para 7 dias
  • Temperatura da água
  • Mapa do tempo
  • Widgets de tempo
  • user-avatar
    Iniciar Sessão

    Previsão horária em Vratsa

    Hoje, 1 Abril, Quarta-feira

    Tempo Temperatura Precipitação Vento Pressão Humidade
    00:00 -4°C° 0.7 mm 3 m/s 709 mmHg 96%
    01:00 -4°C° 0.7 mm 3 m/s 709 mmHg 96%
    02:00 -4°C° 0.7 mm 3 m/s 709 mmHg 96%
    03:00 -5°C° 0.5 mm 3 m/s 709 mmHg 95%
    04:00 -5°C° 0.5 mm 3 m/s 709 mmHg 94%
    05:00 -5°C° 0.5 mm 3 m/s 709 mmHg 94%
    06:00 -5°C° 0.5 mm 3 m/s 709 mmHg 94%
    07:00 -5°C° 0.5 mm 3 m/s 709 mmHg 93%
    08:00 -5°C° 0.5 mm 3 m/s 709 mmHg 93%
    09:00 -5°C° 0.4 mm 3 m/s 709 mmHg 94%
    10:00 -4°C° 0.4 mm 4 m/s 709 mmHg 94%
    11:00 -4°C° 0.4 mm 4 m/s 709 mmHg 95%
    12:00 -4°C° 0.6 mm 4 m/s 709 mmHg 95%
    13:00 -3°C° 0.6 mm 4 m/s 708 mmHg 96%
    14:00 -3°C° 0.6 mm 4 m/s 708 mmHg 97%
    15:00 -2°C° 0.6 mm 3 m/s 708 mmHg 96%
    16:00 -2°C° 0.6 mm 3 m/s 707 mmHg 96%
    17:00 -2°C° 0.6 mm 2 m/s 707 mmHg 96%
    18:00 -2°C° 0.2 mm 2 m/s 707 mmHg 96%
    19:00 -2°C° 0.2 mm 2 m/s 707 mmHg 97%
    20:00 -2°C° 0.2 mm 2 m/s 707 mmHg 97%
    21:00 0°C° 0.2 mm 1 m/s 707 mmHg 97%
    22:00 0°C° 0.2 mm 1 m/s 707 mmHg 97%
    23:00 0°C° 0.2 mm 1 m/s 707 mmHg 97%

    Amanhã, 2 Abril, Quinta-feira

    Tempo Temperatura Precipitação Vento Pressão Humidade
    00:00 0°C° 0.2 mm 1 m/s 708 mmHg 97%
    01:00 0°C° 0.2 mm 1 m/s 708 mmHg 97%
    02:00 0°C° 0.2 mm 1 m/s 708 mmHg 97%
    03:00 0°C° 0.2 mm 1 m/s 708 mmHg 97%
    04:00 0°C° 0.2 mm 1 m/s 707 mmHg 97%
    05:00 -1°C° 0.2 mm 1 m/s 707 mmHg 97%
    06:00 -1°C° 0 mm 1 m/s 708 mmHg 97%
    07:00 -1°C° 0 mm 1 m/s 708 mmHg 96%
    08:00 -1°C° 0 mm 1 m/s 708 mmHg 95%
    09:00 0°C° 0.1 mm 1 m/s 708 mmHg 93%
    10:00 +1°C° 0.1 mm 1 m/s 707 mmHg 91%
    11:00 +1°C° 0.1 mm 1 m/s 707 mmHg 89%
    12:00 +2°C° 0 mm 1 m/s 707 mmHg 88%
    13:00 +3°C° 0 mm 1 m/s 707 mmHg 86%
    14:00 +3°C° 0 mm 1 m/s 707 mmHg 84%
    15:00 +3°C° 0 mm 1 m/s 707 mmHg 84%
    16:00 +3°C° 0 mm 1 m/s 707 mmHg 84%
    17:00 +3°C° 0 mm 1 m/s 706 mmHg 84%
    18:00 +2°C° 0 mm 1 m/s 706 mmHg 86%
    19:00 +1°C° 0 mm 1 m/s 706 mmHg 87%
    20:00 0°C° 0 mm 1 m/s 706 mmHg 88%
    21:00 0°C° 0 mm 1 m/s 706 mmHg 88%
    22:00 0°C° 0 mm 1 m/s 706 mmHg 87%
    23:00 0°C° 0 mm 1 m/s 706 mmHg 86%

    Depois de amanhã, 3 Abril, Sexta-feira

    Tempo Temperatura Precipitação Vento Pressão Humidade
    00:00 0°C° 0 mm 1 m/s 706 mmHg 86%
    01:00 0°C° 0 mm 1 m/s 706 mmHg 86%
    02:00 0°C° 0 mm 1 m/s 706 mmHg 87%
    03:00 0°C° 0 mm 1 m/s 706 mmHg 87%
    04:00 -1°C° 0 mm 1 m/s 706 mmHg 87%
    05:00 -1°C° 0 mm 1 m/s 706 mmHg 88%
    06:00 0°C° 0 mm 1 m/s 706 mmHg 87%
    07:00 0°C° 0 mm 0 m/s 706 mmHg 86%
    08:00 +1°C° 0 mm 0 m/s 706 mmHg 85%
    09:00 +4°C° 0 mm 1 m/s 707 mmHg 82%
    10:00 +5°C° 0 mm 1 m/s 707 mmHg 78%
    11:00 +7°C° 0 mm 1 m/s 707 mmHg 75%
    12:00 +8°C° 0 mm 1 m/s 707 mmHg 73%
    13:00 +9°C° 0 mm 1 m/s 707 mmHg 70%
    14:00 +10°C° 0 mm 1 m/s 707 mmHg 68%
    15:00 +9°C° 0 mm 1 m/s 707 mmHg 69%
    16:00 +9°C° 0 mm 1 m/s 707 mmHg 70%
    17:00 +9°C° 0 mm 1 m/s 707 mmHg 72%
    18:00 +8°C° 0 mm 1 m/s 707 mmHg 76%
    19:00 +7°C° 0 mm 1 m/s 707 mmHg 81%
    20:00 +5°C° 0 mm 1 m/s 707 mmHg 85%
    21:00 +5°C° 0 mm 1 m/s 708 mmHg 85%
    22:00 +5°C° 0 mm 1 m/s 708 mmHg 86%
    23:00 +5°C° 0 mm 1 m/s 708 mmHg 86%

    4 Abril, Sábado

    Tempo Temperatura Precipitação Vento Pressão Humidade
    00:00 +4°C° 0 mm 1 m/s 708 mmHg 85%
    01:00 +4°C° 0 mm 1 m/s 708 mmHg 85%
    02:00 +4°C° 0 mm 1 m/s 708 mmHg 84%
    03:00 +4°C° 0 mm 1 m/s 708 mmHg 84%
    04:00 +4°C° 0 mm 1 m/s 708 mmHg 84%
    05:00 +4°C° 0 mm 1 m/s 709 mmHg 84%
    06:00 +4°C° 0 mm 0 m/s 709 mmHg 82%
    07:00 +5°C° 0 mm 0 m/s 710 mmHg 80%
    08:00 +6°C° 0 mm 0 m/s 710 mmHg 78%
    09:00 +8°C° 0 mm 1 m/s 710 mmHg 73%
    10:00 +9°C° 0 mm 1 m/s 711 mmHg 68%
    11:00 +10°C° 0 mm 1 m/s 711 mmHg 63%
    12:00 +11°C° 0.1 mm 1 m/s 711 mmHg 62%
    13:00 +11°C° 0.1 mm 1 m/s 711 mmHg 61%
    14:00 +11°C° 0.1 mm 1 m/s 711 mmHg 60%
    15:00 +11°C° 0.1 mm 1 m/s 711 mmHg 62%
    16:00 +11°C° 0.1 mm 1 m/s 711 mmHg 64%
    17:00 +11°C° 0.1 mm 1 m/s 711 mmHg 66%
    18:00 +10°C° 0 mm 1 m/s 711 mmHg 69%
    19:00 +9°C° 0 mm 1 m/s 711 mmHg 72%
    20:00 +8°C° 0 mm 1 m/s 711 mmHg 76%
    21:00 +7°C° 0 mm 1 m/s 712 mmHg 77%
    22:00 +7°C° 0 mm 1 m/s 712 mmHg 78%
    23:00 +7°C° 0 mm 1 m/s 713 mmHg 78%

    5 Abril, Domingo

    Tempo Temperatura Precipitação Vento Pressão Humidade
    00:00 +7°C° 0 mm 1 m/s 713 mmHg 79%
    01:00 +7°C° 0 mm 1 m/s 713 mmHg 80%
    02:00 +7°C° 0 mm 1 m/s 713 mmHg 81%
    03:00 +7°C° 0 mm 1 m/s 713 mmHg 83%
    04:00 +6°C° 0 mm 1 m/s 713 mmHg 85%
    05:00 +5°C° 0 mm 1 m/s 713 mmHg 87%
    06:00 +6°C° 0 mm 1 m/s 713 mmHg 84%
    07:00 +6°C° 0 mm 2 m/s 713 mmHg 82%
    08:00 +5°C° 0 mm 3 m/s 714 mmHg 79%
    09:00 +6°C° 0 mm 4 m/s 714 mmHg 71%
    10:00 +8°C° 0 mm 6 m/s 714 mmHg 62%
    11:00 +9°C° 0 mm 7 m/s 714 mmHg 53%
    12:00 +9°C° 0 mm 8 m/s 714 mmHg 53%
    13:00 +10°C° 0 mm 8 m/s 714 mmHg 53%
    14:00 +10°C° 0 mm 9 m/s 714 mmHg 53%
    15:00 +10°C° 0 mm 8 m/s 713 mmHg 57%
    16:00 +9°C° 0 mm 7 m/s 713 mmHg 60%
    17:00 +9°C° 0 mm 7 m/s 713 mmHg 64%
    18:00 +8°C° 0 mm 6 m/s 713 mmHg 66%
    19:00 +7°C° 0 mm 6 m/s 714 mmHg 68%
    20:00 +6°C° 0 mm 5 m/s 714 mmHg 70%
    21:00 +6°C° 0 mm 5 m/s 714 mmHg 71%
    22:00 +5°C° 0 mm 4 m/s 714 mmHg 71%
    23:00 +4°C° 0 mm 3 m/s 715 mmHg 71%

    6 Abril, Segunda-feira

    Tempo Temperatura Precipitação Vento Pressão Humidade
    00:00 +3°C° 0 mm 3 m/s 714 mmHg 73%
    01:00 +2°C° 0 mm 3 m/s 714 mmHg 74%
    02:00 +2°C° 0 mm 3 m/s 714 mmHg 75%
    03:00 +2°C° 0 mm 3 m/s 715 mmHg 75%
    04:00 +1°C° 0 mm 3 m/s 715 mmHg 75%
    05:00 +1°C° 0 mm 3 m/s 715 mmHg 76%
    06:00 0°C° 0 mm 4 m/s 716 mmHg 73%
    07:00 0°C° 0 mm 5 m/s 716 mmHg 70%
    08:00 0°C° 0 mm 5 m/s 717 mmHg 67%
    09:00 +1°C° 0 mm 5 m/s 717 mmHg 65%
    10:00 +2°C° 0 mm 5 m/s 717 mmHg 63%
    11:00 +2°C° 0 mm 5 m/s 717 mmHg 60%
    12:00 +3°C° 0 mm 6 m/s 717 mmHg 59%
    13:00 +4°C° 0 mm 6 m/s 717 mmHg 57%
    14:00 +5°C° 0 mm 6 m/s 717 mmHg 55%
    15:00 +5°C° 0 mm 6 m/s 717 mmHg 55%
    16:00 +5°C° 0 mm 6 m/s 717 mmHg 55%
    17:00 +5°C° 0 mm 6 m/s 717 mmHg 54%
    18:00 +4°C° 0 mm 6 m/s 717 mmHg 56%
    19:00 +3°C° 0 mm 5 m/s 717 mmHg 58%
    20:00 +3°C° 0 mm 4 m/s 718 mmHg 60%
    21:00 +1°C° 0 mm 4 m/s 718 mmHg 60%
    22:00 +1°C° 0 mm 3 m/s 718 mmHg 60%
    23:00 0°C° 0 mm 3 m/s 718 mmHg 60%
    Mostrar mais